Weather in Loikaw

Myanmar     19°40′52″N   97°12′49″E
temp.,
°C
wind,
m/s
gust,
m/s
humid.,
%
clouds,
%
prec.,
mm/h
press.,
hPa
HPBL,
m
27 july, tue
tue2700:30+20ssw1299100 4.3 100680
03:30+20s2398100 0.7 1004124
06:30+20sse1499100 0.8 1005213
09:30+20s149899 0.3 1007229
12:30+23ssw2485100 0.8 1005693
15:30+22sw289165 1.1 1003834
18:30+21ssw2293100 1.8 100436
21:30+20s119567 0.1 100636
28 july, wed
wed2800:30+20s129792 0.1 100671
03:30+20s129684 0.0 100474
06:30+20sse1297100 0.1 100693
09:30+22sse239499 1.1 1006206
12:30+23sw2688100 2.4 1004599
15:30+25wsw4775100 0.7 1002944
18:30+22wsw1187100 1.3 100425
21:30+21sw1191100 0.1 100641
29 july, thu
thu2900:30+21wsw1194100 0.1 100638
03:30+20sw119679 0.0 100411
06:30+20ssw119486 0.0 100660
09:30+25ssw147484 0.3 1006977
12:30+26s1379100 2.0 1004514
15:30+26sw2577100 2.3 1002797
18:30+22wsw2488100 3.3 100495
21:30+21wsw2292100 0.0 100735
30 july, fri
fri3000:30+20sw1192100 0.0 100624
03:30+20sw1194100 0.0 100524
06:30+20ssw119396 0.0 100667
09:30+26ssw237073 0.1 10071121
12:30+28ssw2460100 0.2 10031461
15:30+26ssw2581100 1.3 1002645
18:30+23wsw2490100 2.7 100475
21:30+21wsw229488 0.0 100735
31 july, sat
sat3100:30+21sw1194100 0.1 100635
03:30+21sw119468 0.1 100512
06:30+22sw119344 0.2 100631
09:30+26ssw247479 0.5 10071061
12:30+27ssw147695 2.2 1004916
15:30+27sw257863 2.3 1002646
18:30+22wsw2591100 3.5 1004114
21:30+21wsw2293100 0.1 100738